View from above orbital plane
|
View from above satellite
|
Ground track
|
The orbit data is extracted from the following two-line orbital elements,
1 15331U 84105A 21063.49966527 .00001290 00000-0 68845-4 0 9998
2 15331 82.5352 74.4868 0012890 282.3839 77.5950 15.14211768986745
Epoch (UTC): | 04 March 2021 11:59:31 |
Eccentricity: | 0.0012890 |
inclination: | 82.5352° |
perigee height: | 514 km |
apogee height: | 532 km |
right ascension of ascending node: | 74.4868° |
argument of perigee: | 282.3839° |
revolutions per day: | 15.14211768 |
mean anomaly at epoch: | 77.5950° |
orbit number at epoch: | 98674 |
The dashed part of the orbit path shows where the satellite is in the earth's shadow,
|
|